COSMOS 2251 DEB, 35023

Orbit data source: Space-Track

COSMOS 2251 DEB, 35023 is space debris in LEO originally from a launch on Wed, 16 Jun 1993 UTC launched from the Plesetsk Missile And Space Complex (PKMTR). The debris from Iridium 33, an American commercial communications satellite, has been tracked extensively since its accidental collision with the defunct Russian satellite Cosmos 2251 in 2009. This event, occurring at high speed in low Earth orbit (LEO), generated thousands of pieces of space debris, significantly increasing the risk of further collisions. The Iridium 33 debris cloud has impacted space traffic management and orbital debris mitigation strategies, making it a subject of ongoing study in space situational awareness.

Loading next visibility...
Identifier
35023, 1993-036AGL
Orbit
LEO
Country
Flag of CISCIS
Related business
Manufacturer
Unknown
Mission
Spacecraft
Bus & Motor
Unknown
Mass
Unknown
Launch date (UTC)
1993-06-16 (32 years ago)
Launch vehicle
Unknown
Launch site
Plesetsk Missile And Space Complex (PKMTR)
Object type
Payload
Rocket body
Debris
Shape & HBR
Unknown shape, 0.1 m
Radar Cross Section
Small (<0.1 m²)

Expand to show TLE details & history
Last TLE update: 17 hours ago

TLE from 17 hours ago
0 COSMOS 2251 DEB
1 35023U 93036AGL 25304.75369205  .00023248  00000-0  22170-2 0  9998
2 35023  74.0379 297.1114 0036024  23.0503 159.1358 14.92772793876529
Epoch: 2025-10-31T18:05Z
TLE epoch observation values (Epoch: 2025-10-31T18:05:18.993Z)
Latitude
-2.37083°
Longitude
166.16351°
Altitude
615.782 km
Speed
7.538 km/s
True Right ascension
07h 51m 08s
True Declination
-2° 21' 23"
Sunlit
Object was in daylight at epoch
Visualization orbit readout
Latitude
Unknown
Longitude
Unknown
Altitude
Unknown
Speed
Unknown
Apparent Right ascension
Unknown
Apparent Declination
Unknown
Sunlit
N/A
Visualization observer readout
Local Sidereal Time
06:46:21
Azimuth
Unknown
Elevation
Unknown
Doppler factor
Unknown
Orbital elements
Apogee altitude
611.946 km
Perigee altitude
561.765 km
Semi-major axis
6,964.993 km
Eccentricity
0.0036
Inclination
74.0379°
RAAN
297.1114°
Arg. of periapsis
23.0503°
True anomaly
159.28221°
Mean anomaly
159.1358°
Eccentric anomaly
159.20906°
Mean motion
3.7339 °/min
Orbital period
96.41 mins
BSTAR
0.002217

Documentation

Showing up to 5 results
|